Regional Weather Roundup
Issued by NWS

Home | Current Version | Previous Version | Text Only | Print | Product List | Glossary On
Versions: 1 2 3 4 5 6 7 8 9 10 11 12 13 14 15 16 17 18 19 20 21 22 23 24 25 26 27 28 29 30 31 32 33 34 35 36 37 38 39 40 41 42 43 44 45 46 47 48 49 50
000
ASUS46 KSEW 211810
RWRWA

WASHINGTON REGIONAL WEATHER ROUNDUP
NATIONAL WEATHER SERVICE SEATTLE WA
1000 AM PST SUN DEC 21 2014

NOTE:"FAIR" INDICATES FEW OR NO CLOUDS BELOW 12,000 FEET WITH NO
SIGNIFICANT WEATHER AND/OR OBSTRUCTIONS TO VISIBILITY.

WAZ505-507>509-211900-
SEATTLE, TACOMA, EVERETT, AND VICINITY

CITY           SKY/WX    TMP DP  RH WIND       PRES   REMARKS
EVERETT        CLOUDY    48  44  86 CALM      29.91R
6HR MIN TEMP:  47; 6HR MAX TEMP:  50; 6HR PCP:  0.20;

BOEING FIELD   CLOUDY    54  47  77 CALM      29.92R
6HR MIN TEMP:  54; 6HR MAX TEMP:  55;

RENTON         CLOUDY    53  47  79 CALM      29.93R
6HR MIN TEMP:  52; 6HR MAX TEMP:  53;

SEATAC AIRPORT CLOUDY    51  46  83 SW5       29.93R
6HR MIN TEMP:  51; 6HR MAX TEMP:  52;

JBLM-MCCHORD   CLOUDY    52  49  88 SW13      29.95R
6HR MIN TEMP:  48; 6HR MAX TEMP:  52; 6HR PCP: TRACE;

PUYALLUP       NOT AVBL
JBLM-FT LEWIS  NOT AVBL
TACOMA NARROWS CLOUDY    51  46  83 S12G24    29.94R
6HR MIN TEMP:  50; 6HR MAX TEMP:  52; 6HR PCP:  0.01;

$$

WAZ001-503-506-510-514-515-211900-
NORTH INTERIOR

CITY           SKY/WX    TMP DP  RH WIND       PRES   REMARKS
BELLINGHAM     PTSUNNY   50  42  74 S8        29.87R
6HR MIN TEMP:  48; 6HR MAX TEMP:  52;

FRIDAY HARBOR  CLOUDY    49  46  90 SW3       29.90R
6HR MIN TEMP:  45; 6HR MAX TEMP:  50;

EASTSOUND      CLOUDY    50  43  76 S9        29.85R
PORT ANGELES   CLOUDY    51  43  74 W6        29.89R
6HR MIN TEMP:  47; 6HR MAX TEMP:  51; 6HR PCP:  0.02;

NAS WHIDBEY    CLOUDY    53  46  77 W7        29.91R
6HR MIN TEMP:  51; 6HR MAX TEMP:  53; 6HR PCP:  0.02;

BURLINGTON     MOSUNNY   52  46  82 W5        29.91R
$$

WAZ020-022-039-040-504-511-512-211900-
SOUTHWEST INTERIOR

CITY           SKY/WX    TMP DP  RH WIND       PRES   REMARKS
SHELTON        CLOUDY    51  47  86 SW13      29.91R
6HR MIN TEMP:  49; 6HR MAX TEMP:  51; 6HR PCP:  0.02;

OLYMPIA        PTSUNNY   52  46  80 SW12      29.96R
6HR MIN TEMP:  50; 6HR MAX TEMP:  53; 6HR PCP:  0.01;

CHEHALIS       FAIR      54  50  87 SW5       29.99R
KELSO          CLOUDY    54  48  82 S3        30.08R
6HR MIN TEMP:  52; 6HR MAX TEMP:  54; 6HR PCP:  0.01;

VANCOUVER      CLOUDY    54  48  80 VRB3      30.04R
6HR MIN TEMP:  52; 6HR MAX TEMP:  56;

SCAPPOOSE, OR  CLOUDY    51  49  92 CALM      30.05R
6HR MIN TEMP:  48; 6HR MAX TEMP:  53; 6HR PCP: TRACE;

PORTLAND, OR   CLOUDY    55  50  83 W8        30.05R
6HR MIN TEMP:  54; 6HR MAX TEMP:  56;

$$

WAZ021-516-517-211900-
WASHINGTON COAST

CITY           SKY/WX    TMP DP  RH WIND       PRES   REMARKS
FORKS          CLOUDY    52  49  89 W10       29.93R FOG
6HR MIN TEMP:  50; 6HR MAX TEMP:  52; 6HR PCP:  0.03;

HOQUIAM        CLOUDY    53  50  89 SW14      29.98R FOG
6HR MIN TEMP:  52; 6HR MAX TEMP:  53; 6HR PCP:  0.07;

ASTORIA, OR    CLOUDY    55  51  86 SW12G22   30.03S
6HR MIN TEMP:  54; 6HR MAX TEMP:  55; 6HR PCP:  0.05;

$$

WAZ019-023-024-040-518-519-211900-
CASCADE MOUNTAINS AND COLUMBIA GORGE

CITY           SKY/WX    TMP DP  RH WIND       PRES   REMARKS
TROUTDALE, OR  CLOUDY    56  48  74 W9        30.03R
6HR MIN TEMP:  55; 6HR MAX TEMP:  57; 6HR PCP: TRACE;

THE DALLES, OR LGT RAIN  53  47  79 W16       29.96R
6HR MIN TEMP:  51; 6HR MAX TEMP:  55; 6HR PCP:  0.15;

$$

WAZ026-027-041>044-520-521-211900-
EAST SLOPES

CITY           SKY/WX    TMP DP  RH WIND       PRES   REMARKS
OMAK           SUNNY     40  35  83 SE9       29.76R
6HR MIN TEMP:  32; 6HR MAX TEMP:  40;

WENATCHEE      LGT RAIN  43  39  86 W6        29.84R
6HR MIN TEMP:  36; 6HR MAX TEMP:  44; 6HR PCP:  0.06;

ELLENSBURG     CLOUDY    49  42  77 NW5       29.85R
6HR MIN TEMP:  43; 6HR MAX TEMP:  49; 6HR PCP:  0.01;

YAKIMA         CLOUDY    52  39  61 VRB5      29.88R
6HR MIN TEMP:  43; 6HR MAX TEMP:  54; 6HR PCP: TRACE;

$$

WAZ028-034-035-211900-
COLUMBIA BASIN

CITY           SKY/WX    TMP DP  RH WIND       PRES   REMARKS
EPHRATA        PTSUNNY   50  38  63 VRB3      29.80R
6HR MIN TEMP:  42; 6HR MAX TEMP:  51;

MOSES LAKE     PTSUNNY   42  37  82 CALM      29.83R
6HR MIN TEMP:  40; 6HR MAX TEMP:  45;

PASCO          PTSUNNY   55  41  59 W23G35    29.86R
6HR MIN TEMP:  52; 6HR MAX TEMP:  57;

HERMISTON, OR  CLOUDY    53  45  74 SW15      29.91R
6HR MIN TEMP:  53; 6HR MAX TEMP:  57;

$$

WAZ036>038-211900-
NORTHEAST WASHINGTON

CITY           SKY/WX    TMP DP  RH WIND       PRES   REMARKS
SPOKANE GEIGER PTSUNNY   44  36  73 W20G28    29.75R
6HR MIN TEMP:  39; 6HR MAX TEMP:  45;

SPOKANE FELTS  MOSUNNY   43  38  82 CALM      29.77R
6HR MIN TEMP:  36; 6HR MAX TEMP:  49;

FAIRCHILD AFB  MOSUNNY   42  37  81 W23G31    29.74R
6HR MIN TEMP:  38; 6HR MAX TEMP:  43; 6HR PCP: TRACE;

COEURDALENE,ID MOSUNNY   43  36  75 SW14      29.73R
6HR MIN TEMP:  39; 6HR MAX TEMP:  46;

DEER PARK      MOSUNNY   44  36  73 SW12      29.74R
6HR MIN TEMP:  38; 6HR MAX TEMP:  46;

$$

WAZ029>033-211900-
SOUTHEAST WASHINGTON

CITY           SKY/WX    TMP DP  RH WIND       PRES   REMARKS
PULLMAN        CLOUDY    45  40  82 SW18      29.81R
6HR MIN TEMP:  45; 6HR MAX TEMP:  50;

LEWISTON, ID   LGT RAIN  54  37  52 W17G29    29.81R
6HR MIN TEMP:  53; 6HR MAX TEMP:  60; 6HR PCP: TRACE;

WALLA WALLA    CLOUDY    52  43  71 SW18G30   29.88R
6HR MIN TEMP:  52; 6HR MAX TEMP:  56;

PENDLETON, OR  CLOUDY    52  40  63 W24G35    29.90R
6HR MIN TEMP:  50; 6HR MAX TEMP:  54;

$$


USA.gov is the U.S. government's official web portal to all federal, state and local government web resources and services.